Regional Weather Roundup
Issued by NWS

Home | Current Version | Previous Version | Text Only | Print | Product List | Glossary Off
Versions: 1 2 3 4 5 6 7 8 9 10 11 12 13 14 15 16 17 18 19 20 21 22 23 24 25 26 27 28 29 30 31 32 33 34 35 36 37 38 39 40 41 42 43 44 45 46 47 48 49 50

000
ASUS43 KLOT 060200
RWRIL

ILLINOIS REGIONAL WEATHER ROUNDUP
NATIONAL WEATHER SERVICE CHICAGO/ROMEOVILLE IL
900 PM CDT SUN JUL 05 2015

NOTE: "FAIR" INDICATES FEW OR NO CLOUDS BELOW 12,000 FEET WITH NO
SIGNIFICANT WEATHER AND/OR OBSTRUCTIONS TO VISIBILITY.

* THESE STATIONS ARE NOT UNDER NWS QUALITY CONTROL. THEY ALSO MAY NOT
  REPORT WEATHER SUCH AS PRECIPITATION OR FOG.

ILZ001-002-007-009-015-016-024-060300-
NORTHWEST ILLINOIS

CITY           SKY/WX    TMP DP  RH WIND       PRES   REMARKS
MOLINE         PTCLDY    74  66  76 SE7       29.97S
STERLING*      CLEAR     73  64  73 S3        29.99F
$$

ILZ003-004-008-010-011-017-018-060300-
NORTH CENTRAL ILLINOIS

CITY           SKY/WX    TMP DP  RH WIND       PRES   REMARKS
ROCKFORD       PTCLDY    73  63  70 S8        30.01S
$$

ILZ005-006-012>014-019>023-060300-
NORTHEAST ILLINOIS

CITY           SKY/WX    TMP DP  RH WIND       PRES   REMARKS
CHICAGO-OHARE  CLEAR     74  60  61 S7        30.01S
CHICAGO-MIDWAY CLEAR     81  61  50 S7        30.01F HX  82
AURORA         PTCLDY    73  62  68 S5        30.02S
WAUKEGAN       PTCLDY    71  60  68 SE7       30.00F
DUPAGE AIRPORT CLEAR     72  61  68 S5        30.01F
WHEELING       CLEAR     75  60  59 SE5       30.01F
NORTHERLY ISL    N/A     68  63  84 SE5         N/A
$$

LMZ740>746-060300-
SOUTHERN LAKE MICHIGAN

STATION/POSITION SKY/WX   TEMP    WIND        PRES    VSBY  WAVE
                          AIR SEA DIR/SP/G                  HT/PER
                          (F)     (DEG/KT/KT) (MB)    (MI)  (FT/S)
HARRISON CRIB              70     110/ 15/ 16   N/A
BURNHAM HARBOR             68     150/  3/  4   N/A
CALUMET HARBOR             71     100/  7/  9   N/A
BURNS HARBOR               70      80/  2/  6 1017.6S
MICHIGAN CITY              73      50/  4/  5   N/A
MICHIGAN CITY 6N           69 68   80/  4/  6   N/A           1
ST. JOSEPH                 70 68                N/A           0
$$

ILZ025>027-034>036-040-047-049-050-058-095>099-060300-
WEST-CENTRAL ILLINOIS

CITY           SKY/WX    TMP DP  RH WIND       PRES   REMARKS
QUINCY         PTCLDY    75  69  81 SE7       29.97F HAZE
$$

ILZ028>032-037-038-041>044-048-051>054-059>061-060300-
CENTRAL ILLINOIS

CITY           SKY/WX    TMP DP  RH WIND       PRES   REMARKS
DECATUR        CLEAR     72  66  81 S3        30.03R
PEORIA         CLEAR     77  65  66 SE5       30.00F HAZE
SPRINGFIELD    PTCLDY    75  68  78 SE6       30.01R
TAYLORVILLE    NOT AVBL
$$

ILZ033-039-045-046-055>057-062-063-060300-
EAST-CENTRAL ILLINOIS

CITY           SKY/WX    TMP DP  RH WIND       PRES   REMARKS
CHAMPAIGN      CLEAR     72  67  84 CALM      30.04S
MATTOON        CLEAR     73  70  90 CALM      30.04R FOG
$$

ILZ079-100>102-060300-
SOUTHWEST ILLINOIS

CITY           SKY/WX    TMP DP  RH WIND       PRES   REMARKS
BELLEVILLE     PTCLDY    74  70  86 SE6       30.01R
CAHOKIA*       PTCLDY    78  69  73 S3        30.01R HX  80
$$

ILZ064>066-069>071-074>076-080>082-084>086-088>090-092>094-060300-
SOUTH-CENTRAL ILLINOIS

CITY           SKY/WX    TMP DP  RH WIND       PRES   REMARKS
CARBONDALE     CLEAR     75  69  81 S6        30.04R
MT. VERNON     CLEAR     72  64  78 CALM      30.05R
$$

ILZ067-068-072-073-078-083-087-091-060300-
SOUTHEAST ILLINOIS

CITY           SKY/WX    TMP DP  RH WIND       PRES   REMARKS
LAWRENCEVILLE  PTCLDY    76  69  79 MISG      30.05R
$$

ABBREVIATIONS USED IN REMARKS
   TC - TEMPERATURE IN CELSIUS
  WCI - WIND CHILL INDEX
   HX - HEAT INDEX
  VSB - VISIBILITY
$$



USA.gov is the U.S. government's official web portal to all federal, state and local government web resources and services.